Regional Weather Roundup
Issued by NWS

Home | Current Version | Previous Version | Graphics & Text | Print | Product List | Glossary On
Versions: 1 2 3 4 5 6 7 8 9 10 11 12 13 14 15 16 17 18 19 20 21 22 23 24 25 26 27 28 29 30 31 32 33 34 35 36 37 38 39 40 41 42 43 44 45 46 47 48 49 50
000
ASUS43 KLOT 011558
RWRIL

ILLINOIS REGIONAL WEATHER ROUNDUP
NATIONAL WEATHER SERVICE CHICAGO/ROMEOVILLE IL
1100 AM CDT WED OCT 01 2014

NOTE: "FAIR" INDICATES FEW OR NO CLOUDS BELOW 12,000 FEET WITH NO
SIGNIFICANT WEATHER AND/OR OBSTRUCTIONS TO VISIBILITY.

* THESE STATIONS ARE NOT UNDER NWS QUALITY CONTROL. THEY ALSO MAY NOT
  REPORT WEATHER SUCH AS PRECIPITATION OR FOG.

ILZ001-002-007-009-015-016-024-011700-
NORTHWEST ILLINOIS

CITY           SKY/WX    TMP DP  RH WIND       PRES   REMARKS
MOLINE         NOT AVBL
$$

ILZ003-004-008-010-011-017-018-011700-
NORTH CENTRAL ILLINOIS

CITY           SKY/WX    TMP DP  RH WIND       PRES   REMARKS
ROCKFORD       NOT AVBL
$$

ILZ005-006-012>014-019>023-011700-
NORTHEAST ILLINOIS

CITY           SKY/WX    TMP DP  RH WIND       PRES   REMARKS
CHICAGO-OHARE  MOSUNNY   61  47  59 SE10      30.01F
CHICAGO-MIDWAY NOT AVBL
AURORA         SUNNY     63  49  60 SE13      30.00F
WAUKEGAN       NOT AVBL
DUPAGE AIRPORT SUNNY     62  48  60 SE10      30.00F
WHEELING       SUNNY     63  47  55 SE8       30.02F
$$

LMZ740>746-011700-
SOUTHERN LAKE MICHIGAN

STATION/POSITION SKY/WX   TEMP    WIND        PRES    VSBY  WAVE
                          AIR SEA DIR/SP/G                  HT/PER
                          (F)     (DEG/KT/KT) (MB)    (MI)  (FT/S)
SOUTHERN BUOY              57 61  150/ 10/ 14 1017.6R         2/ 4
WAUKEGAN HARBOR            58     150/ 13/ 16   N/A
HARRISON CRIB              56     150/ 14/ 18   N/A
BURNHAM HARBOR             59     130/ 10/ 13   N/A
CALUMET HARBOR             60     160/  8/ 11 1015.6F
MICHIGAN CITY              56     120/  9/ 11   N/A
MICHIGAN CITY 6N           58 64  140/  8/ 12   N/A           1/ 2
ST. JOSEPH                 57 62  130/  8/ 10   N/A           1/ 2
$$

ILZ025>027-034>036-040-047-049-050-058-095>099-011700-
WEST-CENTRAL ILLINOIS

CITY           SKY/WX    TMP DP  RH WIND       PRES   REMARKS
$$

ILZ028>032-037-038-041>044-048-051>054-059>061-011700-
CENTRAL ILLINOIS

CITY           SKY/WX    TMP DP  RH WIND       PRES   REMARKS
PEORIA         MOSUNNY   69  56  62 SE9       29.95S
SPRINGFIELD    SUNNY     72  59  63 S7        29.94S
TAYLORVILLE    NOT AVBL
$$

ILZ033-039-045-046-055>057-062-063-011700-
EAST-CENTRAL ILLINOIS

CITY           SKY/WX    TMP DP  RH WIND       PRES   REMARKS
$$

ILZ079-100>102-011700-
SOUTHWEST ILLINOIS

CITY           SKY/WX    TMP DP  RH WIND       PRES   REMARKS
$$

ILZ064>066-069>071-074>076-080>082-084>086-088>090-092>094-011700-
SOUTH-CENTRAL ILLINOIS

CITY           SKY/WX    TMP DP  RH WIND       PRES   REMARKS
CARBONDALE     SUNNY     79  60  52 S9        29.94F HX  80
MARION         MOSUNNY   79  61  53 S9        29.96F HX  80
$$

ILZ067-068-072-073-078-083-087-091-011700-
SOUTHEAST ILLINOIS

CITY           SKY/WX    TMP DP  RH WIND       PRES   REMARKS
$$

ABBREVIATIONS USED IN REMARKS
   TC - TEMPERATURE IN CELSIUS
  WCI - WIND CHILL INDEX
   HX - HEAT INDEX
  VSB - VISIBILITY
$$



USA.gov is the U.S. government's official web portal to all federal, state and local government web resources and services.